Wetterdaten: Mittwoch, 16.11.2011
Datum Zeit Temp. A. Temp. A. min Temp. A. max Feuchte A. Bod.Feucht 4 Luftdruck Regen Wind Richtung Richtung Sonnenschein ET Solar Taupunkt Windchill Windben Empfang
16.11.2011 00:00 -0,5 C 0,0 C 0,0 C 87 % 0 cb 1018,5 hPa 0,0 l/m 1,2 km/h (1 Bft) W 280 0 min 0,000 mm 0 W/m -2,4 C -0,5 C 1,2 km/h (1 Bft) 0,00 %
16.11.2011 00:05 -0,4 C 0,0 C 0,0 C 87 % 0 cb 1018,5 hPa 0,0 l/m 3,0 km/h (1 Bft) O-NO 75 0 min 0,000 mm 0 W/m -2,3 C -0,4 C 3,0 km/h (1 Bft) 0,00 %
16.11.2011 00:10 -0,3 C 0,0 C 0,0 C 87 % 0 cb 1018,5 hPa 0,0 l/m 5,1 km/h (1 Bft) O 95 0 min 0,000 mm 0 W/m -2,2 C -2,0 C 5,1 km/h (1 Bft) 0,00 %
16.11.2011 00:15 -0,3 C 0,0 C 0,0 C 86 % 0 cb 1017,5 hPa 0,0 l/m 3,6 km/h (1 Bft) W-SW 255 0 min 0,000 mm 0 W/m -2,3 C -0,3 C 3,6 km/h (1 Bft) 0,00 %
16.11.2011 00:20 -0,2 C 0,0 C 0,0 C 86 % 0 cb 1017,5 hPa 0,0 l/m 1,8 km/h (1 Bft) S-SO 160 0 min 0,000 mm 0 W/m -2,3 C -0,2 C 1,8 km/h (1 Bft) 0,00 %
16.11.2011 00:25 -0,1 C 0,0 C 0,0 C 86 % 0 cb 1017,5 hPa 0,0 l/m 4,8 km/h (1 Bft) N-NW 340 0 min 0,000 mm 0 W/m -2,2 C -1,6 C 4,8 km/h (1 Bft) 0,00 %
16.11.2011 00:30 -0,1 C 0,0 C 0,0 C 86 % 0 cb 1017,5 hPa 0,0 l/m 7,3 km/h (2 Bft) O-SO 115 0 min 0,000 mm 0 W/m -2,2 C -2,6 C 7,3 km/h (2 Bft) 0,00 %
16.11.2011 00:35 -0,1 C 0,0 C 0,0 C 86 % 0 cb 1017,5 hPa 0,0 l/m 4,8 km/h (1 Bft) S-SW 195 0 min 0,000 mm 0 W/m -2,2 C -1,6 C 4,8 km/h (1 Bft) 0,00 %
16.11.2011 00:40 -0,1 C 0,0 C 0,0 C 85 % 0 cb 1017,5 hPa 0,0 l/m 9,1 km/h (2 Bft) O-NO 65 0 min 0,000 mm 0 W/m -2,3 C -3,2 C 9,1 km/h (2 Bft) 0,00 %
16.11.2011 00:45 0,0 C 0,0 C 0,0 C 85 % 0 cb 1017,5 hPa 0,0 l/m 6,7 km/h (2 Bft) SO 125 0 min 0,000 mm 0 W/m -2,2 C -2,3 C 6,7 km/h (2 Bft) 0,00 %
16.11.2011 00:50 0,0 C 0,0 C 0,0 C 85 % 0 cb 1017,5 hPa 0,0 l/m 1,8 km/h (1 Bft) N 5 0 min 0,000 mm 0 W/m -2,2 C 0,0 C 1,8 km/h (1 Bft) 0,00 %
16.11.2011 00:55 -0,1 C 0,0 C 0,0 C 85 % 0 cb 1017,5 hPa 0,0 l/m 3,6 km/h (1 Bft) N-NO 30 0 min 0,000 mm 0 W/m -2,3 C -0,1 C 3,6 km/h (1 Bft) 0,00 %
16.11.2011 01:00 0,0 C 0,0 C 0,0 C 85 % 0 cb 1018,5 hPa 0,0 l/m 4,8 km/h (1 Bft) NO 50 0 min 0,000 mm 0 W/m -2,2 C -1,5 C 4,8 km/h (1 Bft) 0,00 %
16.11.2011 01:05 0,0 C 0,0 C 0,0 C 85 % 0 cb 1018,5 hPa 0,0 l/m 6,4 km/h (2 Bft) W 275 0 min 0,000 mm 0 W/m -2,2 C -2,2 C 6,4 km/h (2 Bft) 0,00 %
16.11.2011 01:10 0,0 C 0,0 C 0,0 C 85 % 0 cb 1018,5 hPa 0,0 l/m 3,0 km/h (1 Bft) SW 235 0 min 0,000 mm 0 W/m -2,2 C 0,0 C 3,0 km/h (1 Bft) 0,00 %
16.11.2011 01:15 0,0 C 0,0 C 0,0 C 85 % 0 cb 1018,5 hPa 0,0 l/m 0,0 km/h (0 Bft) NO 40 0 min 0,000 mm 0 W/m -2,2 C 0,0 C 0,0 km/h (0 Bft) 0,00 %
16.11.2011 01:20 -0,1 C 0,0 C 0,0 C 85 % 0 cb 1018,5 hPa 0,0 l/m 3,6 km/h (1 Bft) SW 230 0 min 0,000 mm 0 W/m -2,3 C -0,1 C 3,6 km/h (1 Bft) 0,00 %
16.11.2011 01:25 -0,1 C 0,0 C 0,0 C 85 % 0 cb 1018,5 hPa 0,0 l/m 2,1 km/h (1 Bft) NW 320 0 min 0,000 mm 0 W/m -2,3 C -0,1 C 2,1 km/h (1 Bft) 0,00 %
16.11.2011 01:30 -0,2 C 0,0 C 0,0 C 84 % 0 cb 1018,5 hPa 0,0 l/m 1,8 km/h (1 Bft) NO 50 0 min 0,000 mm 0 W/m -2,6 C -0,2 C 1,8 km/h (1 Bft) 0,00 %
16.11.2011 01:35 -0,2 C 0,0 C 0,0 C 85 % 0 cb 1018,5 hPa 0,0 l/m 3,6 km/h (1 Bft) SO 125 0 min 0,000 mm 0 W/m -2,4 C -0,2 C 3,6 km/h (1 Bft) 0,00 %
16.11.2011 01:40 -0,2 C 0,0 C 0,0 C 85 % 0 cb 1018,5 hPa 0,0 l/m 3,0 km/h (1 Bft) SO 125 0 min 0,000 mm 0 W/m -2,4 C -0,2 C 3,0 km/h (1 Bft) 0,00 %
16.11.2011 01:45 -0,2 C 0,0 C 0,0 C 84 % 0 cb 1017,5 hPa 0,0 l/m 1,8 km/h (1 Bft) SW 220 0 min 0,000 mm 0 W/m -2,6 C -0,2 C 1,8 km/h (1 Bft) 0,00 %
16.11.2011 01:50 -0,3 C 0,0 C 0,0 C 85 % 0 cb 1017,5 hPa 0,0 l/m 1,8 km/h (1 Bft) SW 230 0 min 0,000 mm 0 W/m -2,5 C -0,3 C 1,8 km/h (1 Bft) 0,00 %
16.11.2011 01:55 -0,3 C 0,0 C 0,0 C 84 % 0 cb 1017,5 hPa 0,0 l/m 2,4 km/h (1 Bft) W-NW 300 0 min 0,000 mm 0 W/m -2,7 C -0,3 C 2,4 km/h (1 Bft) 0,00 %
16.11.2011 02:00 -0,3 C 0,0 C 0,0 C 84 % 0 cb 1017,5 hPa 0,0 l/m 0,0 km/h (0 Bft) W 265 0 min 0,000 mm 0 W/m -2,7 C -0,3 C 0,0 km/h (0 Bft) 0,00 %
16.11.2011 02:05 -0,4 C 0,0 C 0,0 C 85 % 0 cb 1017,5 hPa 0,0 l/m 5,1 km/h (1 Bft) W-NW 300 0 min 0,000 mm 0 W/m -2,6 C -2,1 C 5,1 km/h (1 Bft) 0,00 %
16.11.2011 02:10 -0,5 C 0,0 C 0,0 C 85 % 0 cb 1017,5 hPa 0,0 l/m 0,3 km/h (0 Bft) N-NO 30 0 min 0,000 mm 0 W/m -2,7 C -0,5 C 0,3 km/h (0 Bft) 0,00 %
16.11.2011 02:15 -0,4 C 0,0 C 0,0 C 85 % 0 cb 1018,5 hPa 0,0 l/m 1,8 km/h (1 Bft) NW 325 0 min 0,000 mm 0 W/m -2,6 C -0,4 C 1,8 km/h (1 Bft) 0,00 %
16.11.2011 02:20 -0,3 C 0,0 C 0,0 C 85 % 0 cb 1018,5 hPa 0,0 l/m 0,0 km/h (0 Bft) SO 145 0 min 0,000 mm 0 W/m -2,5 C -0,3 C 0,0 km/h (0 Bft) 0,00 %
16.11.2011 02:25 -0,4 C 0,0 C 0,0 C 85 % 0 cb 1018,5 hPa 0,0 l/m 0,0 km/h (0 Bft) N-NW 345 0 min 0,000 mm 0 W/m -2,6 C -0,4 C 0,0 km/h (0 Bft) 0,00 %
16.11.2011 02:30 -0,3 C 0,0 C 0,0 C 85 % 0 cb 1017,5 hPa 0,0 l/m 4,2 km/h (1 Bft) O-NO 75 0 min 0,000 mm 0 W/m -2,5 C -0,3 C 4,2 km/h (1 Bft) 0,00 %
16.11.2011 02:35 -0,2 C 0,0 C 0,0 C 84 % 0 cb 1017,5 hPa 0,0 l/m 5,4 km/h (1 Bft) NW 310 0 min 0,000 mm 0 W/m -2,6 C -2,0 C 5,4 km/h (1 Bft) 0,00 %
16.11.2011 02:40 -0,3 C 0,0 C 0,0 C 84 % 0 cb 1017,5 hPa 0,0 l/m 3,3 km/h (1 Bft) N 5 0 min 0,000 mm 0 W/m -2,7 C -0,3 C 3,3 km/h (1 Bft) 0,00 %
16.11.2011 02:45 -0,3 C 0,0 C 0,0 C 84 % 0 cb 1017,5 hPa 0,0 l/m 8,2 km/h (2 Bft) S-SO 150 0 min 0,000 mm 0 W/m -2,7 C -3,2 C 8,2 km/h (2 Bft) 0,00 %
16.11.2011 02:50 -0,3 C 0,0 C 0,0 C 84 % 0 cb 1017,5 hPa 0,0 l/m 5,1 km/h (1 Bft) N-NO 20 0 min 0,000 mm 0 W/m -2,7 C -2,0 C 5,1 km/h (1 Bft) 0,00 %
16.11.2011 02:55 -0,3 C 0,0 C 0,0 C 84 % 0 cb 1017,5 hPa 0,0 l/m 4,5 km/h (1 Bft) N-NO 20 0 min 0,000 mm 0 W/m -2,7 C -0,3 C 4,5 km/h (1 Bft) 0,00 %
16.11.2011 03:00 -0,3 C 0,0 C 0,0 C 84 % 0 cb 1018,5 hPa 0,0 l/m 5,7 km/h (1 Bft) W 275 0 min 0,000 mm 0 W/m -2,7 C -2,2 C 5,7 km/h (1 Bft) 0,00 %
16.11.2011 03:05 -0,3 C 0,0 C 0,0 C 84 % 0 cb 1018,5 hPa 0,0 l/m 4,8 km/h (1 Bft) SW 235 0 min 0,000 mm 0 W/m -2,7 C -1,8 C 4,8 km/h (1 Bft) 0,00 %
16.11.2011 03:10 -0,3 C 0,0 C 0,0 C 84 % 0 cb 1018,5 hPa 0,0 l/m 5,4 km/h (1 Bft) W-SW 250 0 min 0,000 mm 0 W/m -2,7 C -2,1 C 5,4 km/h (1 Bft) 0,00 %
16.11.2011 03:15 -0,4 C 0,0 C 0,0 C 84 % 0 cb 1017,5 hPa 0,0 l/m 6,4 km/h (2 Bft) N 0 0 min 0,000 mm 0 W/m -2,8 C -2,6 C 6,4 km/h (2 Bft) 0,00 %
16.11.2011 03:20 -0,3 C 0,0 C 0,0 C 84 % 0 cb 1017,5 hPa 0,0 l/m 10,3 km/h (2 Bft) SW 230 0 min 0,000 mm 0 W/m -2,7 C -3,8 C 10,3 km/h (2 Bft) 0,00 %
16.11.2011 03:25 -0,3 C 0,0 C 0,0 C 84 % 0 cb 1017,5 hPa 0,0 l/m 3,6 km/h (1 Bft) W-NW 295 0 min 0,000 mm 0 W/m -2,7 C -0,3 C 3,6 km/h (1 Bft) 0,00 %
16.11.2011 03:30 -0,3 C 0,0 C 0,0 C 84 % 0 cb 1017,5 hPa 0,0 l/m 5,4 km/h (1 Bft) O-NO 75 0 min 0,000 mm 0 W/m -2,7 C -2,1 C 5,4 km/h (1 Bft) 0,00 %
16.11.2011 03:35 -0,4 C 0,0 C 0,0 C 85 % 0 cb 1017,5 hPa 0,0 l/m 2,4 km/h (1 Bft) NO 40 0 min 0,000 mm 0 W/m -2,6 C -0,4 C 2,4 km/h (1 Bft) 0,00 %
16.11.2011 03:40 -0,4 C 0,0 C 0,0 C 85 % 0 cb 1017,5 hPa 0,0 l/m 3,9 km/h (1 Bft) N-NW 345 0 min 0,000 mm 0 W/m -2,6 C -0,4 C 3,9 km/h (1 Bft) 0,00 %
16.11.2011 03:45 -0,5 C 0,0 C 0,0 C 85 % 0 cb 1017,5 hPa 0,0 l/m 4,2 km/h (1 Bft) O-SO 110 0 min 0,000 mm 0 W/m -2,7 C -0,5 C 4,2 km/h (1 Bft) 0,00 %
16.11.2011 03:50 -0,7 C 0,0 C 0,0 C 85 % 0 cb 1017,5 hPa 0,0 l/m 4,2 km/h (1 Bft) S 180 0 min 0,000 mm 0 W/m -2,9 C -0,7 C 4,2 km/h (1 Bft) 0,00 %
16.11.2011 03:55 -0,8 C 0,0 C 0,0 C 85 % 0 cb 1017,5 hPa 0,0 l/m 2,1 km/h (1 Bft) NW 315 0 min 0,000 mm 0 W/m -3,0 C -0,8 C 2,1 km/h (1 Bft) 0,00 %
16.11.2011 04:00 -0,8 C 0,0 C 0,0 C 86 % 0 cb 1018,5 hPa 0,0 l/m 1,2 km/h (1 Bft) O-SO 110 0 min 0,000 mm 0 W/m -2,8 C -0,8 C 1,2 km/h (1 Bft) 0,00 %
16.11.2011 04:05 -0,9 C 0,0 C 0,0 C 86 % 0 cb 1018,5 hPa 0,0 l/m 1,8 km/h (1 Bft) O-SO 115 0 min 0,000 mm 0 W/m -2,9 C -0,9 C 1,8 km/h (1 Bft) 0,00 %
16.11.2011 04:10 -1,0 C 0,0 C 0,0 C 86 % 0 cb 1018,5 hPa 0,0 l/m 0,6 km/h (0 Bft) O 85 0 min 0,000 mm 0 W/m -3,0 C -1,0 C 0,6 km/h (0 Bft) 0,00 %
16.11.2011 04:15 -1,0 C 0,0 C 0,0 C 86 % 0 cb 1017,5 hPa 0,0 l/m 0,3 km/h (0 Bft) O-NO 75 0 min 0,000 mm 0 W/m -3,0 C -1,0 C 0,3 km/h (0 Bft) 0,00 %
16.11.2011 04:20 -1,0 C 0,0 C 0,0 C 86 % 0 cb 1017,5 hPa 0,0 l/m 5,4 km/h (1 Bft) S-SO 155 0 min 0,000 mm 0 W/m -3,0 C -2,9 C 5,4 km/h (1 Bft) 0,00 %
16.11.2011 04:25 -1,0 C 0,0 C 0,0 C 86 % 0 cb 1017,5 hPa 0,0 l/m 0,6 km/h (0 Bft) N-NW 330 0 min 0,000 mm 0 W/m -3,0 C -1,0 C 0,6 km/h (0 Bft) 0,00 %
16.11.2011 04:30 -0,9 C 0,0 C 0,0 C 86 % 0 cb 1017,5 hPa 0,0 l/m 0,0 km/h (0 Bft) O 90 0 min 0,000 mm 0 W/m -2,9 C -0,9 C 0,0 km/h (0 Bft) 0,00 %
16.11.2011 04:35 -0,9 C 0,0 C 0,0 C 86 % 0 cb 1017,5 hPa 0,0 l/m 4,8 km/h (1 Bft) NO 50 0 min 0,000 mm 0 W/m -2,9 C -2,5 C 4,8 km/h (1 Bft) 0,00 %
16.11.2011 04:40 -0,9 C 0,0 C 0,0 C 86 % 0 cb 1017,5 hPa 0,0 l/m 5,7 km/h (1 Bft) NO 45 0 min 0,000 mm 0 W/m -2,9 C -2,9 C 5,7 km/h (1 Bft) 0,00 %
16.11.2011 04:45 -0,9 C 0,0 C 0,0 C 87 % 0 cb 1018,5 hPa 0,0 l/m 4,2 km/h (1 Bft) N-NW 335 0 min 0,000 mm 0 W/m -2,8 C -0,9 C 4,2 km/h (1 Bft) 0,00 %
16.11.2011 04:50 -1,0 C 0,0 C 0,0 C 87 % 0 cb 1018,5 hPa 0,0 l/m 3,3 km/h (1 Bft) N 5 0 min 0,000 mm 0 W/m -2,9 C -1,0 C 3,3 km/h (1 Bft) 0,00 %
16.11.2011 04:55 -1,0 C 0,0 C 0,0 C 87 % 0 cb 1018,5 hPa 0,0 l/m 3,0 km/h (1 Bft) NW 315 0 min 0,000 mm 0 W/m -2,9 C -1,0 C 3,0 km/h (1 Bft) 0,00 %
16.11.2011 05:00 -1,0 C 0,0 C 0,0 C 87 % 0 cb 1018,5 hPa 0,0 l/m 2,1 km/h (1 Bft) NO 45 0 min 0,000 mm 0 W/m -2,9 C -1,0 C 2,1 km/h (1 Bft) 0,00 %
16.11.2011 05:05 -1,1 C 0,0 C 0,0 C 87 % 0 cb 1018,5 hPa 0,0 l/m 8,5 km/h (2 Bft) O-SO 120 0 min 0,000 mm 0 W/m -3,0 C -4,2 C 8,5 km/h (2 Bft) 0,00 %
16.11.2011 05:10 -1,1 C 0,0 C 0,0 C 87 % 0 cb 1018,5 hPa 0,0 l/m 3,3 km/h (1 Bft) N-NO 15 0 min 0,000 mm 0 W/m -3,0 C -1,1 C 3,3 km/h (1 Bft) 0,00 %
16.11.2011 05:15 -1,2 C 0,0 C 0,0 C 87 % 0 cb 1018,5 hPa 0,0 l/m 4,8 km/h (1 Bft) N-NW 345 0 min 0,000 mm 0 W/m -3,1 C -2,9 C 4,8 km/h (1 Bft) 0,00 %
16.11.2011 05:20 -1,2 C 0,0 C 0,0 C 87 % 0 cb 1018,5 hPa 0,0 l/m 4,8 km/h (1 Bft) SO 135 0 min 0,000 mm 0 W/m -3,1 C -2,9 C 4,8 km/h (1 Bft) 0,00 %
16.11.2011 05:25 -1,2 C 0,0 C 0,0 C 87 % 0 cb 1018,5 hPa 0,0 l/m 6,7 km/h (2 Bft) SO 145 0 min 0,000 mm 0 W/m -3,1 C -3,7 C 6,7 km/h (2 Bft) 0,00 %
16.11.2011 05:30 -1,2 C 0,0 C 0,0 C 87 % 0 cb 1017,5 hPa 0,0 l/m 5,7 km/h (1 Bft) NO 55 0 min 0,000 mm 0 W/m -3,1 C -3,3 C 5,7 km/h (1 Bft) 0,00 %
16.11.2011 05:31 -1,2 C 0,0 C 0,0 C 87 % 0 cb 1017,5 hPa 0,0 l/m 5,7 km/h (1 Bft) NO 55 0 min 0,000 mm 0 W/m -3,1 C -3,3 C 5,7 km/h (1 Bft) 0,00 %
16.11.2011 05:35 -1,2 C 0,0 C 0,0 C 87 % 0 cb 1017,5 hPa 0,0 l/m 3,9 km/h (1 Bft) O-SO 110 0 min 0,000 mm 0 W/m -3,1 C -1,2 C 3,9 km/h (1 Bft) 0,00 %
16.11.2011 05:40 -1,3 C 0,0 C 0,0 C 87 % 0 cb 1017,5 hPa 0,0 l/m 3,6 km/h (1 Bft) O-SO 115 0 min 0,000 mm 0 W/m -3,2 C -1,3 C 3,6 km/h (1 Bft) 0,00 %
16.11.2011 05:45 -1,4 C 0,0 C 0,0 C 87 % 0 cb 1017,5 hPa 0,0 l/m 4,5 km/h (1 Bft) NW 305 0 min 0,000 mm 0 W/m -3,3 C -1,4 C 4,5 km/h (1 Bft) 0,00 %
16.11.2011 05:50 -1,5 C 0,0 C 0,0 C 87 % 0 cb 1017,5 hPa 0,0 l/m 7,3 km/h (2 Bft) N 350 0 min 0,000 mm 0 W/m -3,4 C -4,3 C 7,3 km/h (2 Bft) 0,00 %
16.11.2011 05:55 -1,7 C 0,0 C 0,0 C 87 % 0 cb 1017,5 hPa 0,0 l/m 8,5 km/h (2 Bft) N 10 0 min 0,000 mm 0 W/m -3,6 C -4,9 C 8,5 km/h (2 Bft) 0,00 %
16.11.2011 06:00 -1,7 C 0,0 C 0,0 C 87 % 0 cb 1017,5 hPa 0,0 l/m 5,7 km/h (1 Bft) S 180 0 min 0,000 mm 0 W/m -3,6 C -3,8 C 5,7 km/h (1 Bft) 0,00 %
16.11.2011 06:05 -1,7 C 0,0 C 0,0 C 88 % 0 cb 1017,5 hPa 0,0 l/m 6,1 km/h (2 Bft) O-NO 75 0 min 0,000 mm 0 W/m -3,4 C -4,0 C 6,1 km/h (2 Bft) 0,00 %
16.11.2011 06:10 -1,7 C 0,0 C 0,0 C 88 % 0 cb 1017,5 hPa 0,0 l/m 13,9 km/h (3 Bft) W-NW 295 0 min 0,000 mm 0 W/m -3,4 C -6,3 C 13,9 km/h (3 Bft) 0,00 %
16.11.2011 06:15 -1,7 C 0,0 C 0,0 C 88 % 0 cb 1017,5 hPa 0,0 l/m 10,3 km/h (2 Bft) NO 55 0 min 0,000 mm 0 W/m -3,4 C -5,4 C 10,3 km/h (2 Bft) 0,00 %
16.11.2011 06:20 -1,7 C 0,0 C 0,0 C 88 % 0 cb 1017,5 hPa 0,0 l/m 3,9 km/h (1 Bft) NW 315 0 min 0,000 mm 0 W/m -3,4 C -1,7 C 3,9 km/h (1 Bft) 0,00 %
16.11.2011 06:25 -1,7 C 0,0 C 0,0 C 88 % 0 cb 1017,5 hPa 0,0 l/m 6,4 km/h (2 Bft) W-NW 290 0 min 0,000 mm 0 W/m -3,4 C -4,1 C 6,4 km/h (2 Bft) 0,00 %
16.11.2011 06:30 -1,8 C 0,0 C 0,0 C 88 % 0 cb 1017,5 hPa 0,0 l/m 4,8 km/h (1 Bft) W-NW 300 0 min 0,000 mm 0 W/m -3,5 C -3,5 C 4,8 km/h (1 Bft) 0,00 %
16.11.2011 06:35 -1,8 C 0,0 C 0,0 C 88 % 0 cb 1017,5 hPa 0,0 l/m 9,1 km/h (2 Bft) N 5 0 min 0,000 mm 0 W/m -3,5 C -5,2 C 9,1 km/h (2 Bft) 0,00 %
16.11.2011 06:40 -1,9 C 0,0 C 0,0 C 88 % 0 cb 1017,5 hPa 0,0 l/m 3,0 km/h (1 Bft) SO 135 0 min 0,000 mm 0 W/m -3,6 C -1,9 C 3,0 km/h (1 Bft) 0,00 %
16.11.2011 06:45 -1,9 C 0,0 C 0,0 C 88 % 0 cb 1017,5 hPa 0,0 l/m 6,1 km/h (2 Bft) N 355 0 min 0,000 mm 0 W/m -3,6 C -4,3 C 6,1 km/h (2 Bft) 0,00 %
16.11.2011 06:50 -1,9 C 0,0 C 0,0 C 88 % 0 cb 1017,5 hPa 0,0 l/m 4,2 km/h (1 Bft) W-SW 245 0 min 0,000 mm 0 W/m -3,6 C -1,9 C 4,2 km/h (1 Bft) 0,00 %
16.11.2011 06:55 -1,9 C 0,0 C 0,0 C 88 % 0 cb 1017,5 hPa 0,0 l/m 8,2 km/h (2 Bft) NW 310 0 min 0,000 mm 0 W/m -3,6 C -5,0 C 8,2 km/h (2 Bft) 0,00 %
16.11.2011 07:00 -1,9 C 0,0 C 0,0 C 88 % 0 cb 1018,5 hPa 0,0 l/m 4,2 km/h (1 Bft) W-SW 245 0 min 0,000 mm 0 W/m -3,6 C -1,9 C 4,2 km/h (1 Bft) 0,00 %
16.11.2011 07:05 -1,9 C 0,0 C 0,0 C 88 % 0 cb 1018,5 hPa 0,0 l/m 7,0 km/h (2 Bft) O 90 0 min 0,000 mm 0 W/m -3,6 C -4,6 C 7,0 km/h (2 Bft) 0,00 %
16.11.2011 07:10 -1,9 C 0,0 C 0,0 C 89 % 0 cb 1018,5 hPa 0,0 l/m 5,4 km/h (1 Bft) N-NW 345 0 min 0,000 mm 0 W/m -3,5 C -3,9 C 5,4 km/h (1 Bft) 0,00 %
16.11.2011 07:15 -2,0 C 0,0 C 0,0 C 89 % 0 cb 1018,5 hPa 0,0 l/m 7,3 km/h (2 Bft) W-NW 300 0 min 0,000 mm 0 W/m -3,6 C -4,8 C 7,3 km/h (2 Bft) 0,00 %
16.11.2011 07:20 -1,9 C 0,0 C 0,0 C 89 % 0 cb 1018,5 hPa 0,0 l/m 3,9 km/h (1 Bft) N-NO 15 0 min 0,000 mm 0 W/m -3,5 C -1,9 C 3,9 km/h (1 Bft) 0,00 %
16.11.2011 07:25 -1,9 C 0,0 C 0,0 C 89 % 0 cb 1018,5 hPa 0,0 l/m 0,0 km/h (0 Bft) O-NO 70 0 min 0,000 mm 0 W/m -3,5 C -1,9 C 0,0 km/h (0 Bft) 0,00 %
16.11.2011 07:30 -1,9 C 0,0 C 0,0 C 89 % 0 cb 1017,5 hPa 0,0 l/m 2,7 km/h (1 Bft) S 190 0 min 0,000 mm 0 W/m -3,5 C -1,9 C 2,7 km/h (1 Bft) 0,00 %
16.11.2011 07:34 -1,9 C 0,0 C 0,0 C 89 % 0 cb 1017,5 hPa 0,0 l/m 2,1 km/h (1 Bft) S-SO 155 0 min 0,000 mm 0 W/m -3,5 C -1,9 C 2,1 km/h (1 Bft) 0,00 %
16.11.2011 07:35 -1,9 C 0,0 C 0,0 C 89 % 0 cb 1017,5 hPa 0,0 l/m 5,7 km/h (1 Bft) W-SW 245 0 min 0,000 mm 0 W/m -3,5 C -4,1 C 5,7 km/h (1 Bft) 0,00 %
16.11.2011 07:40 -1,8 C 0,0 C 0,0 C 89 % 0 cb 1017,5 hPa 0,0 l/m 4,8 km/h (1 Bft) N-NW 330 0 min 0,000 mm 0 W/m -3,4 C -3,5 C 4,8 km/h (1 Bft) 0,00 %
16.11.2011 07:45 -1,9 C 0,0 C 0,0 C 89 % 0 cb 1018,5 hPa 0,0 l/m 4,5 km/h (1 Bft) N 5 0 min 0,000 mm 0 W/m -3,5 C -1,9 C 4,5 km/h (1 Bft) 0,00 %
16.11.2011 07:50 -1,8 C 0,0 C 0,0 C 89 % 0 cb 1018,5 hPa 0,0 l/m 7,0 km/h (2 Bft) W-SW 240 0 min 0,000 mm 0 W/m -3,4 C -4,5 C 7,0 km/h (2 Bft) 0,00 %
16.11.2011 07:55 -1,8 C 0,0 C 0,0 C 89 % 0 cb 1018,5 hPa 0,0 l/m 4,8 km/h (1 Bft) SW 235 0 min 0,000 mm 0 W/m -3,4 C -3,5 C 4,8 km/h (1 Bft) 0,00 %
16.11.2011 08:00 -1,8 C 0,0 C 0,0 C 89 % 0 cb 1018,5 hPa 0,0 l/m 1,2 km/h (1 Bft) S-SO 155 0 min 0,000 mm 0 W/m -3,4 C -1,8 C 1,2 km/h (1 Bft) 0,00 %
16.11.2011 08:05 -1,8 C 0,0 C 0,0 C 89 % 0 cb 1018,5 hPa 0,0 l/m 1,8 km/h (1 Bft) S-SO 165 0 min 0,000 mm 0 W/m -3,4 C -1,8 C 1,8 km/h (1 Bft) 0,00 %
16.11.2011 08:10 -1,8 C 0,0 C 0,0 C 89 % 0 cb 1018,5 hPa 0,0 l/m 3,6 km/h (1 Bft) N 5 0 min 0,000 mm 0 W/m -3,4 C -1,8 C 3,6 km/h (1 Bft) 0,00 %
16.11.2011 08:15 -1,7 C 0,0 C 0,0 C 89 % 0 cb 1018,5 hPa 0,0 l/m 9,1 km/h (2 Bft) NO 45 0 min 0,000 mm 0 W/m -3,3 C -5,1 C 9,1 km/h (2 Bft) 0,00 %
16.11.2011 08:20 -1,7 C 0,0 C 0,0 C 89 % 0 cb 1018,5 hPa 0,0 l/m 0,0 km/h (0 Bft) O-NO 70 0 min 0,000 mm 0 W/m -3,3 C -1,7 C 0,0 km/h (0 Bft) 0,00 %
16.11.2011 08:25 -1,7 C 0,0 C 0,0 C 89 % 0 cb 1018,5 hPa 0,0 l/m 3,6 km/h (1 Bft) NW 325 0 min 0,000 mm 0 W/m -3,3 C -1,7 C 3,6 km/h (1 Bft) 0,00 %
16.11.2011 08:30 -1,7 C 0,0 C 0,0 C 89 % 0 cb 1018,5 hPa 0,0 l/m 1,8 km/h (1 Bft) N-NO 20 0 min 0,000 mm 0 W/m -3,3 C -1,7 C 1,8 km/h (1 Bft) 0,00 %
16.11.2011 08:35 -1,6 C 0,0 C 0,0 C 89 % 0 cb 1018,5 hPa 0,0 l/m 0,0 km/h (0 Bft) O-SO 115 0 min 0,000 mm 0 W/m -3,2 C -1,6 C 0,0 km/h (0 Bft) 0,00 %
16.11.2011 08:40 -1,5 C 0,0 C 0,0 C 89 % 0 cb 1018,5 hPa 0,0 l/m 5,1 km/h (1 Bft) O 100 0 min 0,000 mm 0 W/m -3,1 C -3,3 C 5,1 km/h (1 Bft) 0,00 %
16.11.2011 08:45 -1,5 C 0,0 C 0,0 C 89 % 0 cb 1018,5 hPa 0,0 l/m 3,9 km/h (1 Bft) N 5 0 min 0,000 mm 0 W/m -3,1 C -1,5 C 3,9 km/h (1 Bft) 0,00 %
16.11.2011 08:50 -1,4 C 0,0 C 0,0 C 89 % 0 cb 1018,5 hPa 0,0 l/m 5,1 km/h (1 Bft) SW 225 0 min 0,000 mm 0 W/m -3,0 C -3,2 C 5,1 km/h (1 Bft) 0,00 %
16.11.2011 08:55 -1,3 C 0,0 C 0,0 C 89 % 0 cb 1018,5 hPa 0,0 l/m 7,3 km/h (2 Bft) N-NW 330 0 min 0,000 mm 0 W/m -2,9 C -4,0 C 7,3 km/h (2 Bft) 0,00 %
16.11.2011 09:00 -1,2 C 0,0 C 0,0 C 89 % 0 cb 1019,5 hPa 0,0 l/m 1,8 km/h (1 Bft) SO 135 0 min 0,000 mm 0 W/m -2,8 C -1,2 C 1,8 km/h (1 Bft) 0,00 %
16.11.2011 09:05 -1,3 C 0,0 C 0,0 C 89 % 0 cb 1019,5 hPa 0,0 l/m 0,3 km/h (0 Bft) O 85 0 min 0,000 mm 0 W/m -2,9 C -1,3 C 0,3 km/h (0 Bft) 0,00 %
16.11.2011 09:10 -1,2 C 0,0 C 0,0 C 89 % 0 cb 1019,5 hPa 0,0 l/m 0,0 km/h (0 Bft) N-NW 340 0 min 0,000 mm 0 W/m -2,8 C -1,2 C 0,0 km/h (0 Bft) 0,00 %
16.11.2011 09:15 -1,1 C 0,0 C 0,0 C 89 % 0 cb 1018,5 hPa 0,0 l/m 0,6 km/h (0 Bft) NO 40 0 min 0,000 mm 0 W/m -2,7 C -1,1 C 0,6 km/h (0 Bft) 0,00 %
16.11.2011 09:20 -1,1 C 0,0 C 0,0 C 89 % 0 cb 1018,5 hPa 0,0 l/m 0,3 km/h (0 Bft) S 175 0 min 0,000 mm 0 W/m -2,7 C -1,1 C 0,3 km/h (0 Bft) 0,00 %
16.11.2011 09:25 -1,1 C 0,0 C 0,0 C 89 % 0 cb 1018,5 hPa 0,0 l/m 3,0 km/h (1 Bft) O 85 0 min 0,000 mm 0 W/m -2,7 C -1,1 C 3,0 km/h (1 Bft) 0,00 %
16.11.2011 09:30 -1,0 C 0,0 C 0,0 C 89 % 0 cb 1019,5 hPa 0,0 l/m 0,0 km/h (0 Bft) O 80 0 min 0,000 mm 0 W/m -2,6 C -1,0 C 0,0 km/h (0 Bft) 0,00 %
16.11.2011 09:35 -1,0 C 0,0 C 0,0 C 89 % 0 cb 1019,5 hPa 0,0 l/m 0,0 km/h (0 Bft) O-NO 75 0 min 0,000 mm 0 W/m -2,6 C -1,0 C 0,0 km/h (0 Bft) 0,00 %
16.11.2011 09:40 -0,9 C 0,0 C 0,0 C 88 % 0 cb 1019,5 hPa 0,0 l/m 0,0 km/h (0 Bft) NO 50 0 min 0,000 mm 0 W/m -2,6 C -0,9 C 0,0 km/h (0 Bft) 0,00 %
16.11.2011 09:45 -1,0 C 0,0 C 0,0 C 88 % 0 cb 1019,5 hPa 0,0 l/m 0,0 km/h (0 Bft) S 185 0 min 0,000 mm 0 W/m -2,7 C -1,0 C 0,0 km/h (0 Bft) 0,00 %
16.11.2011 09:50 -0,9 C 0,0 C 0,0 C 88 % 0 cb 1019,5 hPa 0,0 l/m 0,0 km/h (0 Bft) O-SO 120 0 min 0,000 mm 0 W/m -2,6 C -0,9 C 0,0 km/h (0 Bft) 0,00 %
16.11.2011 09:55 -0,8 C 0,0 C 0,0 C 88 % 0 cb 1019,5 hPa 0,0 l/m 0,0 km/h (0 Bft) O-SO 105 0 min 0,000 mm 0 W/m -2,5 C -0,8 C 0,0 km/h (0 Bft) 0,00 %
16.11.2011 10:00 -0,8 C 0,0 C 0,0 C 88 % 0 cb 1018,5 hPa 0,0 l/m 0,0 km/h (0 Bft) NO 45 0 min 0,000 mm 0 W/m -2,5 C -0,8 C 0,0 km/h (0 Bft) 0,00 %
16.11.2011 10:05 -0,9 C 0,0 C 0,0 C 88 % 0 cb 1018,5 hPa 0,0 l/m 8,5 km/h (2 Bft) O 85 0 min 0,000 mm 0 W/m -2,6 C -4,0 C 8,5 km/h (2 Bft) 0,00 %
16.11.2011 10:10 -0,9 C 0,0 C 0,0 C 88 % 0 cb 1018,5 hPa 0,0 l/m 6,1 km/h (2 Bft) O 100 0 min 0,000 mm 0 W/m -2,6 C -3,1 C 6,1 km/h (2 Bft) 0,00 %
16.11.2011 10:15 -0,9 C 0,0 C 0,0 C 88 % 0 cb 1018,5 hPa 0,0 l/m 5,4 km/h (1 Bft) SO 140 0 min 0,000 mm 0 W/m -2,6 C -2,8 C 5,4 km/h (1 Bft) 0,00 %
16.11.2011 10:20 -0,8 C 0,0 C 0,0 C 88 % 0 cb 1018,5 hPa 0,0 l/m 6,7 km/h (2 Bft) O-NO 70 0 min 0,000 mm 0 W/m -2,5 C -3,2 C 6,7 km/h (2 Bft) 0,00 %
16.11.2011 10:25 -0,8 C 0,0 C 0,0 C 88 % 0 cb 1018,5 hPa 0,0 l/m 7,3 km/h (2 Bft) O-NO 65 0 min 0,000 mm 0 W/m -2,5 C -3,4 C 7,3 km/h (2 Bft) 0,00 %
16.11.2011 10:30 -0,9 C 0,0 C 0,0 C 88 % 0 cb 1019,5 hPa 0,0 l/m 6,1 km/h (2 Bft) O 80 0 min 0,000 mm 0 W/m -2,6 C -3,1 C 6,1 km/h (2 Bft) 0,00 %
16.11.2011 10:35 -0,8 C 0,0 C 0,0 C 88 % 0 cb 1019,5 hPa 0,0 l/m 5,4 km/h (1 Bft) O-SO 105 0 min 0,000 mm 0 W/m -2,5 C -2,7 C 5,4 km/h (1 Bft) 0,00 %
16.11.2011 10:40 -0,9 C 0,0 C 0,0 C 88 % 0 cb 1019,5 hPa 0,0 l/m 10,6 km/h (2 Bft) NO 40 0 min 0,000 mm 0 W/m -2,6 C -4,5 C 10,6 km/h (2 Bft) 0,00 %
16.11.2011 10:45 -0,9 C 0,0 C 0,0 C 88 % 0 cb 1019,5 hPa 0,0 l/m 7,9 km/h (2 Bft) N-NO 15 0 min 0,000 mm 0 W/m -2,6 C -3,8 C 7,9 km/h (2 Bft) 0,00 %
16.11.2011 10:50 -0,8 C 0,0 C 0,0 C 88 % 0 cb 1019,5 hPa 0,0 l/m 4,8 km/h (1 Bft) N-NO 25 0 min 0,000 mm 0 W/m -2,5 C -2,4 C 4,8 km/h (1 Bft) 0,00 %
16.11.2011 10:55 -0,8 C 0,0 C 0,0 C 88 % 0 cb 1019,5 hPa 0,0 l/m 6,4 km/h (2 Bft) S 190 0 min 0,000 mm 0 W/m -2,5 C -3,1 C 6,4 km/h (2 Bft) 0,00 %
16.11.2011 11:00 -0,8 C 0,0 C 0,0 C 88 % 0 cb 1019,5 hPa 0,0 l/m 3,9 km/h (1 Bft) O-NO 65 0 min 0,000 mm 0 W/m -2,5 C -0,8 C 3,9 km/h (1 Bft) 0,00 %
16.11.2011 11:05 -0,9 C 0,0 C 0,0 C 88 % 0 cb 1019,5 hPa 0,0 l/m 6,1 km/h (2 Bft) S 190 0 min 0,000 mm 0 W/m -2,6 C -3,1 C 6,1 km/h (2 Bft) 0,00 %
16.11.2011 11:10 -0,9 C 0,0 C 0,0 C 88 % 0 cb 1019,5 hPa 0,0 l/m 7,9 km/h (2 Bft) O 80 0 min 0,000 mm 0 W/m -2,6 C -3,8 C 7,9 km/h (2 Bft) 0,00 %
16.11.2011 11:15 -0,8 C 0,0 C 0,0 C 88 % 0 cb 1019,5 hPa 0,0 l/m 3,0 km/h (1 Bft) O 90 0 min 0,000 mm 0 W/m -2,5 C -0,8 C 3,0 km/h (1 Bft) 0,00 %
16.11.2011 11:20 -0,8 C 0,0 C 0,0 C 88 % 0 cb 1019,5 hPa 0,0 l/m 3,6 km/h (1 Bft) O 95 0 min 0,000 mm 0 W/m -2,5 C -0,8 C 3,6 km/h (1 Bft) 0,00 %
16.11.2011 11:25 -0,8 C 0,0 C 0,0 C 88 % 0 cb 1019,5 hPa 0,0 l/m 8,5 km/h (2 Bft) O 90 0 min 0,000 mm 0 W/m -2,5 C -3,8 C 8,5 km/h (2 Bft) 0,00 %
16.11.2011 11:30 -0,8 C 0,0 C 0,0 C 88 % 0 cb 1019,5 hPa 0,0 l/m 6,1 km/h (2 Bft) O-SO 115 0 min 0,000 mm 0 W/m -2,5 C -3,0 C 6,1 km/h (2 Bft) 0,00 %
16.11.2011 11:35 -0,8 C 0,0 C 0,0 C 88 % 0 cb 1019,5 hPa 0,0 l/m 4,2 km/h (1 Bft) O 100 0 min 0,000 mm 0 W/m -2,5 C -0,8 C 4,2 km/h (1 Bft) 0,00 %
16.11.2011 11:40 -0,9 C 0,0 C 0,0 C 88 % 0 cb 1019,5 hPa 0,0 l/m 7,0 km/h (2 Bft) NO 35 0 min 0,000 mm 0 W/m -2,6 C -3,4 C 7,0 km/h (2 Bft) 0,00 %
16.11.2011 11:45 -0,8 C 0,0 C 0,0 C 88 % 0 cb 1019,5 hPa 0,0 l/m 3,9 km/h (1 Bft) O-SO 105 0 min 0,000 mm 0 W/m -2,5 C -0,8 C 3,9 km/h (1 Bft) 0,00 %
16.11.2011 11:50 -0,9 C 0,0 C 0,0 C 88 % 0 cb 1019,5 hPa 0,0 l/m 9,7 km/h (2 Bft) O-NO 60 0 min 0,000 mm 0 W/m -2,6 C -4,3 C 9,7 km/h (2 Bft) 0,00 %
16.11.2011 11:55 -0,9 C 0,0 C 0,0 C 88 % 0 cb 1019,5 hPa 0,0 l/m 3,0 km/h (1 Bft) O-NO 75 0 min 0,000 mm 0 W/m -2,6 C -0,9 C 3,0 km/h (1 Bft) 0,00 %
16.11.2011 12:00 -0,8 C 0,0 C 0,0 C 88 % 0 cb 1019,5 hPa 0,0 l/m 6,1 km/h (2 Bft) O 90 0 min 0,000 mm 0 W/m -2,5 C -3,0 C 6,1 km/h (2 Bft) 0,00 %
16.11.2011 12:05 -0,9 C 0,0 C 0,0 C 88 % 0 cb 1019,5 hPa 0,0 l/m 3,0 km/h (1 Bft) S 175 0 min 0,000 mm 0 W/m -2,6 C -0,9 C 3,0 km/h (1 Bft) 0,00 %
16.11.2011 12:10 -0,9 C 0,0 C 0,0 C 88 % 0 cb 1019,5 hPa 0,0 l/m 4,8 km/h (1 Bft) O-NO 60 0 min 0,000 mm 0 W/m -2,6 C -2,5 C 4,8 km/h (1 Bft) 0,00 %
16.11.2011 12:15 -0,9 C 0,0 C 0,0 C 88 % 0 cb 1019,5 hPa 0,0 l/m 0,0 km/h (0 Bft) O-SO 115 0 min 0,000 mm 0 W/m -2,6 C -0,9 C 0,0 km/h (0 Bft) 0,00 %
16.11.2011 12:20 -0,9 C 0,0 C 0,0 C 88 % 0 cb 1019,5 hPa 0,0 l/m 0,0 km/h (0 Bft) S-SW 210 0 min 0,000 mm 0 W/m -2,6 C -0,9 C 0,0 km/h (0 Bft) 0,00 %
16.11.2011 12:25 -0,9 C 0,0 C 0,0 C 88 % 0 cb 1019,5 hPa 0,0 l/m 0,0 km/h (0 Bft) N-NO 20 0 min 0,000 mm 0 W/m -2,6 C -0,9 C 0,0 km/h (0 Bft) 0,00 %
16.11.2011 12:30 -0,8 C 0,0 C 0,0 C 88 % 0 cb 1019,5 hPa 0,0 l/m 5,7 km/h (1 Bft) O-NO 65 0 min 0,000 mm 0 W/m -2,5 C -2,8 C 5,7 km/h (1 Bft) 0,00 %
16.11.2011 12:35 -0,9 C 0,0 C 0,0 C 88 % 0 cb 1019,5 hPa 0,0 l/m 7,3 km/h (2 Bft) NO 40 0 min 0,000 mm 0 W/m -2,6 C -3,6 C 7,3 km/h (2 Bft) 0,00 %
16.11.2011 12:40 -0,8 C 0,0 C 0,0 C 88 % 0 cb 1019,5 hPa 0,0 l/m 2,1 km/h (1 Bft) S-SW 195 0 min 0,000 mm 0 W/m -2,5 C -0,8 C 2,1 km/h (1 Bft) 0,00 %
16.11.2011 12:45 -0,7 C 0,0 C 0,0 C 88 % 0 cb 1019,5 hPa 0,0 l/m 0,0 km/h (0 Bft) O-SO 120 0 min 0,000 mm 0 W/m -2,4 C -0,7 C 0,0 km/h (0 Bft) 0,00 %
16.11.2011 12:50 -0,6 C 0,0 C 0,0 C 88 % 0 cb 1019,5 hPa 0,0 l/m 6,7 km/h (2 Bft) NW 305 0 min 0,000 mm 0 W/m -2,3 C -3,0 C 6,7 km/h (2 Bft) 0,00 %
16.11.2011 12:55 -0,7 C 0,0 C 0,0 C 88 % 0 cb 1019,5 hPa 0,0 l/m 3,9 km/h (1 Bft) SO 145 0 min 0,000 mm 0 W/m -2,4 C -0,7 C 3,9 km/h (1 Bft) 0,00 %
16.11.2011 13:00 -0,7 C 0,0 C 0,0 C 88 % 0 cb 1019,5 hPa 0,0 l/m 5,7 km/h (1 Bft) S-SO 155 0 min 0,000 mm 0 W/m -2,4 C -2,7 C 5,7 km/h (1 Bft) 0,00 %
16.11.2011 13:05 -0,6 C 0,0 C 0,0 C 88 % 0 cb 1019,5 hPa 0,0 l/m 10,0 km/h (2 Bft) N 350 0 min 0,000 mm 0 W/m -2,3 C -4,0 C 10,0 km/h (2 Bft) 0,00 %
16.11.2011 13:10 -0,7 C 0,0 C 0,0 C 88 % 0 cb 1019,5 hPa 0,0 l/m 7,0 km/h (2 Bft) O 85 0 min 0,000 mm 0 W/m -2,4 C -3,2 C 7,0 km/h (2 Bft) 0,00 %
16.11.2011 13:15 -0,5 C 0,0 C 0,0 C 88 % 0 cb 1019,5 hPa 0,0 l/m 3,0 km/h (1 Bft) NO 45 0 min 0,000 mm 0 W/m -2,2 C -0,5 C 3,0 km/h (1 Bft) 0,00 %
16.11.2011 13:20 -0,6 C 0,0 C 0,0 C 88 % 0 cb 1018,5 hPa 0,0 l/m 0,0 km/h (0 Bft) O 100 0 min 0,000 mm 0 W/m -2,3 C -0,6 C 0,0 km/h (0 Bft) 0,00 %
16.11.2011 13:25 -0,6 C 0,0 C 0,0 C 88 % 0 cb 1018,5 hPa 0,0 l/m 3,3 km/h (1 Bft) N-NO 15 0 min 0,000 mm 0 W/m -2,3 C -0,6 C 3,3 km/h (1 Bft) 0,00 %
16.11.2011 13:30 -0,4 C 0,0 C 0,0 C 88 % 0 cb 1018,5 hPa 0,0 l/m 3,0 km/h (1 Bft) SO 125 0 min 0,000 mm 0 W/m -2,1 C -0,4 C 3,0 km/h (1 Bft) 0,00 %
16.11.2011 13:35 -0,4 C 0,0 C 0,0 C 88 % 0 cb 1018,5 hPa 0,0 l/m 1,8 km/h (1 Bft) O-NO 75 0 min 0,000 mm 0 W/m -2,1 C -0,4 C 1,8 km/h (1 Bft) 0,00 %
16.11.2011 13:40 -0,4 C 0,0 C 0,0 C 88 % 0 cb 1018,5 hPa 0,0 l/m 9,1 km/h (2 Bft) O-NO 75 0 min 0,000 mm 0 W/m -2,1 C -3,5 C 9,1 km/h (2 Bft) 0,00 %
16.11.2011 13:45 -0,3 C 0,0 C 0,0 C 87 % 0 cb 1018,5 hPa 0,0 l/m 6,1 km/h (2 Bft) NW 325 0 min 0,000 mm 0 W/m -2,2 C -2,4 C 6,1 km/h (2 Bft) 0,00 %
16.11.2011 13:50 -0,3 C 0,0 C 0,0 C 87 % 0 cb 1018,5 hPa 0,0 l/m 8,2 km/h (2 Bft) N-NO 20 0 min 0,000 mm 0 W/m -2,2 C -3,2 C 8,2 km/h (2 Bft) 0,00 %
16.11.2011 13:55 -0,3 C 0,0 C 0,0 C 87 % 0 cb 1018,5 hPa 0,0 l/m 4,2 km/h (1 Bft) O 100 0 min 0,000 mm 0 W/m -2,2 C -0,3 C 4,2 km/h (1 Bft) 0,00 %
16.11.2011 14:00 -0,3 C 0,0 C 0,0 C 87 % 0 cb 1018,5 hPa 0,0 l/m 7,6 km/h (2 Bft) O-SO 115 0 min 0,000 mm 0 W/m -2,2 C -3,0 C 7,6 km/h (2 Bft) 0,00 %
16.11.2011 14:05 -0,3 C 0,0 C 0,0 C 87 % 0 cb 1018,5 hPa 0,0 l/m 2,7 km/h (1 Bft) O-SO 110 0 min 0,000 mm 0 W/m -2,2 C -0,3 C 2,7 km/h (1 Bft) 0,00 %
16.11.2011 14:10 -0,3 C 0,0 C 0,0 C 87 % 0 cb 1018,5 hPa 0,0 l/m 3,9 km/h (1 Bft) NO 35 0 min 0,000 mm 0 W/m -2,2 C -0,3 C 3,9 km/h (1 Bft) 0,00 %
16.11.2011 14:15 -0,3 C 0,0 C 0,0 C 87 % 0 cb 1018,5 hPa 0,0 l/m 4,8 km/h (1 Bft) O-NO 60 0 min 0,000 mm 0 W/m -2,2 C -1,8 C 4,8 km/h (1 Bft) 0,00 %
16.11.2011 14:20 -0,2 C 0,0 C 0,0 C 87 % 0 cb 1018,5 hPa 0,0 l/m 6,1 km/h (2 Bft) NO 55 0 min 0,000 mm 0 W/m -2,1 C -2,3 C 6,1 km/h (2 Bft) 0,00 %
16.11.2011 14:25 -0,2 C 0,0 C 0,0 C 87 % 0 cb 1018,5 hPa 0,0 l/m 3,9 km/h (1 Bft) NO 35 0 min 0,000 mm 0 W/m -2,1 C -0,2 C 3,9 km/h (1 Bft) 0,00 %
16.11.2011 14:30 -0,3 C 0,0 C 0,0 C 87 % 0 cb 1018,5 hPa 0,0 l/m 5,4 km/h (1 Bft) SO 125 0 min 0,000 mm 0 W/m -2,2 C -2,1 C 5,4 km/h (1 Bft) 0,00 %
16.11.2011 14:35 -0,1 C 0,0 C 0,0 C 87 % 0 cb 1018,5 hPa 0,0 l/m 4,8 km/h (1 Bft) SO 125 0 min 0,000 mm 0 W/m -2,0 C -1,6 C 4,8 km/h (1 Bft) 0,00 %
16.11.2011 14:40 -0,1 C 0,0 C 0,0 C 87 % 0 cb 1018,5 hPa 0,0 l/m 0,0 km/h (0 Bft) O-NO 60 0 min 0,000 mm 0 W/m -2,0 C -0,1 C 0,0 km/h (0 Bft) 0,00 %
16.11.2011 14:45 0,0 C 0,0 C 0,0 C 87 % 0 cb 1018,5 hPa 0,0 l/m 5,4 km/h (1 Bft) O 85 0 min 0,000 mm 0 W/m -1,9 C -1,8 C 5,4 km/h (1 Bft) 0,00 %
16.11.2011 14:50 0,0 C 0,0 C 0,0 C 87 % 0 cb 1018,5 hPa 0,0 l/m 0,0 km/h (0 Bft) N-NO 30 0 min 0,000 mm 0 W/m -1,9 C 0,0 C 0,0 km/h (0 Bft) 0,00 %
16.11.2011 14:55 0,0 C 0,0 C 0,0 C 87 % 0 cb 1018,5 hPa 0,0 l/m 6,4 km/h (2 Bft) S 190 0 min 0,000 mm 0 W/m -1,9 C -2,2 C 6,4 km/h (2 Bft) 0,00 %
16.11.2011 15:00 -0,1 C 0,0 C 0,0 C 87 % 0 cb 1018,5 hPa 0,0 l/m 3,9 km/h (1 Bft) N-NW 335 0 min 0,000 mm 0 W/m -2,0 C -0,1 C 3,9 km/h (1 Bft) 0,00 %
16.11.2011 15:05 -0,1 C 0,0 C 0,0 C 87 % 0 cb 1018,5 hPa 0,0 l/m 7,9 km/h (2 Bft) NO 55 0 min 0,000 mm 0 W/m -2,0 C -2,8 C 7,9 km/h (2 Bft) 0,00 %
16.11.2011 15:10 -0,1 C 0,0 C 0,0 C 87 % 0 cb 1018,5 hPa 0,0 l/m 5,1 km/h (1 Bft) O 100 0 min 0,000 mm 0 W/m -2,0 C -1,7 C 5,1 km/h (1 Bft) 0,00 %
16.11.2011 15:15 -0,1 C 0,0 C 0,0 C 87 % 0 cb 1018,5 hPa 0,0 l/m 0,0 km/h (0 Bft) NO 40 0 min 0,000 mm 0 W/m -2,0 C -0,1 C 0,0 km/h (0 Bft) 0,00 %
16.11.2011 15:20 -0,1 C 0,0 C 0,0 C 87 % 0 cb 1018,5 hPa 0,0 l/m 4,5 km/h (1 Bft) O-NO 65 0 min 0,000 mm 0 W/m -2,0 C -0,1 C 4,5 km/h (1 Bft) 0,00 %
16.11.2011 15:25 -0,1 C 0,0 C 0,0 C 87 % 0 cb 1018,5 hPa 0,0 l/m 3,9 km/h (1 Bft) NO 35 0 min 0,000 mm 0 W/m -2,0 C -0,1 C 3,9 km/h (1 Bft) 0,00 %
16.11.2011 15:30 0,0 C 0,0 C 0,0 C 87 % 0 cb 1018,5 hPa 0,0 l/m 3,3 km/h (1 Bft) O 90 0 min 0,000 mm 0 W/m -1,9 C 0,0 C 3,3 km/h (1 Bft) 0,00 %
16.11.2011 15:35 0,0 C 0,0 C 0,0 C 87 % 0 cb 1018,5 hPa 0,0 l/m 0,0 km/h (0 Bft) N 10 0 min 0,000 mm 0 W/m -1,9 C 0,0 C 0,0 km/h (0 Bft) 0,00 %
16.11.2011 15:40 0,0 C 0,0 C 0,0 C 87 % 0 cb 1018,5 hPa 0,0 l/m 3,0 km/h (1 Bft) N 5 0 min 0,000 mm 0 W/m -1,9 C 0,0 C 3,0 km/h (1 Bft) 0,00 %
16.11.2011 15:45 -0,1 C 0,0 C 0,0 C 87 % 0 cb 1018,5 hPa 0,0 l/m 3,0 km/h (1 Bft) N 10 0 min 0,000 mm 0 W/m -2,0 C -0,1 C 3,0 km/h (1 Bft) 0,00 %
16.11.2011 15:50 -0,1 C 0,0 C 0,0 C 87 % 0 cb 1018,5 hPa 0,0 l/m 8,2 km/h (2 Bft) O-SO 120 0 min 0,000 mm 0 W/m -2,0 C -2,9 C 8,2 km/h (2 Bft) 0,00 %
16.11.2011 15:55 -0,2 C 0,0 C 0,0 C 87 % 0 cb 1018,5 hPa 0,0 l/m 6,1 km/h (2 Bft) N-NO 20 0 min 0,000 mm 0 W/m -2,1 C -2,3 C 6,1 km/h (2 Bft) 0,00 %
16.11.2011 16:00 -0,3 C 0,0 C 0,0 C 87 % 0 cb 1018,5 hPa 0,0 l/m 9,7 km/h (2 Bft) O 100 0 min 0,000 mm 0 W/m -2,2 C -3,6 C 9,7 km/h (2 Bft) 0,00 %
16.11.2011 16:05 -0,2 C 0,0 C 0,0 C 87 % 0 cb 1018,5 hPa 0,0 l/m 7,9 km/h (2 Bft) O-NO 75 0 min 0,000 mm 0 W/m -2,1 C -2,9 C 7,9 km/h (2 Bft) 0,00 %
16.11.2011 16:10 -0,2 C 0,0 C 0,0 C 87 % 0 cb 1018,5 hPa 0,0 l/m 1,8 km/h (1 Bft) O 100 0 min 0,000 mm 0 W/m -2,1 C -0,2 C 1,8 km/h (1 Bft) 0,00 %
16.11.2011 16:15 -0,2 C 0,0 C 0,0 C 87 % 0 cb 1018,5 hPa 0,0 l/m 7,9 km/h (2 Bft) N-NO 30 0 min 0,000 mm 0 W/m -2,1 C -2,9 C 7,9 km/h (2 Bft) 0,00 %
16.11.2011 16:20 -0,2 C 0,0 C 0,0 C 87 % 0 cb 1018,5 hPa 0,0 l/m 4,8 km/h (1 Bft) N-NO 20 0 min 0,000 mm 0 W/m -2,1 C -1,7 C 4,8 km/h (1 Bft) 0,00 %
16.11.2011 16:25 -0,3 C 0,0 C 0,0 C 87 % 0 cb 1018,5 hPa 0,0 l/m 6,1 km/h (2 Bft) SW 225 0 min 0,000 mm 0 W/m -2,2 C -2,4 C 6,1 km/h (2 Bft) 0,00 %
16.11.2011 16:30 -0,2 C 0,0 C 0,0 C 87 % 0 cb 1018,5 hPa 0,0 l/m 3,0 km/h (1 Bft) S-SO 160 0 min 0,000 mm 0 W/m -2,1 C -0,2 C 3,0 km/h (1 Bft) 0,00 %
16.11.2011 16:35 -0,2 C 0,0 C 0,0 C 87 % 0 cb 1018,5 hPa 0,0 l/m 3,9 km/h (1 Bft) N-NO 25 0 min 0,000 mm 0 W/m -2,1 C -0,2 C 3,9 km/h (1 Bft) 0,00 %
16.11.2011 16:40 -0,3 C 0,0 C 0,0 C 87 % 0 cb 1018,5 hPa 0,0 l/m 7,3 km/h (2 Bft) N-NW 345 0 min 0,000 mm 0 W/m -2,2 C -2,9 C 7,3 km/h (2 Bft) 0,00 %
16.11.2011 16:45 -0,3 C 0,0 C 0,0 C 87 % 0 cb 1018,5 hPa 0,0 l/m 6,1 km/h (2 Bft) O-SO 120 0 min 0,000 mm 0 W/m -2,2 C -2,4 C 6,1 km/h (2 Bft) 0,00 %
16.11.2011 16:50 -0,3 C 0,0 C 0,0 C 87 % 0 cb 1018,5 hPa 0,0 l/m 0,0 km/h (0 Bft) W-NW 290 0 min 0,000 mm 0 W/m -2,2 C -0,3 C 0,0 km/h (0 Bft) 0,00 %
16.11.2011 16:55 -0,2 C 0,0 C 0,0 C 87 % 0 cb 1018,5 hPa 0,0 l/m 0,0 km/h (0 Bft) S-SO 155 0 min 0,000 mm 0 W/m -2,1 C -0,2 C 0,0 km/h (0 Bft) 0,00 %
16.11.2011 17:00 -0,2 C 0,0 C 0,0 C 87 % 0 cb 1018,5 hPa 0,0 l/m 3,0 km/h (1 Bft) O-SO 105 0 min 0,000 mm 0 W/m -2,1 C -0,2 C 3,0 km/h (1 Bft) 0,00 %
16.11.2011 17:05 -0,3 C 0,0 C 0,0 C 87 % 0 cb 1018,5 hPa 0,0 l/m 6,1 km/h (2 Bft) O 100 0 min 0,000 mm 0 W/m -2,2 C -2,4 C 6,1 km/h (2 Bft) 0,00 %
16.11.2011 17:10 -0,3 C 0,0 C 0,0 C 87 % 0 cb 1018,5 hPa 0,0 l/m 5,4 km/h (1 Bft) N-NW 340 0 min 0,000 mm 0 W/m -2,2 C -2,1 C 5,4 km/h (1 Bft) 0,00 %
16.11.2011 17:15 -0,3 C 0,0 C 0,0 C 87 % 0 cb 1018,5 hPa 0,0 l/m 6,4 km/h (2 Bft) O 90 0 min 0,000 mm 0 W/m -2,2 C -2,5 C 6,4 km/h (2 Bft) 0,00 %
16.11.2011 17:20 -0,3 C 0,0 C 0,0 C 87 % 0 cb 1018,5 hPa 0,0 l/m 5,4 km/h (1 Bft) N 355 0 min 0,000 mm 0 W/m -2,2 C -2,1 C 5,4 km/h (1 Bft) 0,00 %
16.11.2011 17:25 -0,3 C 0,0 C 0,0 C 87 % 0 cb 1018,5 hPa 0,0 l/m 7,9 km/h (2 Bft) O-NO 60 0 min 0,000 mm 0 W/m -2,2 C -3,1 C 7,9 km/h (2 Bft) 0,00 %
16.11.2011 17:30 -0,3 C 0,0 C 0,0 C 87 % 0 cb 1018,5 hPa 0,0 l/m 6,1 km/h (2 Bft) N-NO 30 0 min 0,000 mm 0 W/m -2,2 C -2,4 C 6,1 km/h (2 Bft) 0,00 %
16.11.2011 17:35 -0,3 C 0,0 C 0,0 C 87 % 0 cb 1018,5 hPa 0,0 l/m 2,4 km/h (1 Bft) N 10 0 min 0,000 mm 0 W/m -2,2 C -0,3 C 2,4 km/h (1 Bft) 0,00 %
16.11.2011 17:40 -0,3 C 0,0 C 0,0 C 87 % 0 cb 1018,5 hPa 0,0 l/m 2,1 km/h (1 Bft) SO 130 0 min 0,000 mm 0 W/m -2,2 C -0,3 C 2,1 km/h (1 Bft) 0,00 %
16.11.2011 17:45 -0,3 C 0,0 C 0,0 C 87 % 0 cb 1018,5 hPa 0,0 l/m 4,5 km/h (1 Bft) W-NW 300 0 min 0,000 mm 0 W/m -2,2 C -0,3 C 4,5 km/h (1 Bft) 0,00 %
16.11.2011 17:50 -0,3 C 0,0 C 0,0 C 87 % 0 cb 1018,5 hPa 0,0 l/m 4,8 km/h (1 Bft) NO 35 0 min 0,000 mm 0 W/m -2,2 C -1,8 C 4,8 km/h (1 Bft) 0,00 %
16.11.2011 17:55 -0,3 C 0,0 C 0,0 C 87 % 0 cb 1018,5 hPa 0,0 l/m 7,3 km/h (2 Bft) N 0 0 min 0,000 mm 0 W/m -2,2 C -2,9 C 7,3 km/h (2 Bft) 0,00 %
16.11.2011 18:00 -0,3 C 0,0 C 0,0 C 87 % 0 cb 1018,5 hPa 0,0 l/m 6,1 km/h (2 Bft) O-SO 120 0 min 0,000 mm 0 W/m -2,2 C -2,4 C 6,1 km/h (2 Bft) 0,00 %
16.11.2011 18:05 -0,3 C 0,0 C 0,0 C 87 % 0 cb 1019,5 hPa 0,0 l/m 6,4 km/h (2 Bft) O 100 0 min 0,000 mm 0 W/m -2,2 C -2,5 C 6,4 km/h (2 Bft) 0,00 %
16.11.2011 18:10 -0,3 C 0,0 C 0,0 C 87 % 0 cb 1019,5 hPa 0,0 l/m 2,4 km/h (1 Bft) O 85 0 min 0,000 mm 0 W/m -2,2 C -0,3 C 2,4 km/h (1 Bft) 0,00 %
16.11.2011 18:15 -0,3 C 0,0 C 0,0 C 87 % 0 cb 1019,5 hPa 0,0 l/m 0,0 km/h (0 Bft) NO 35 0 min 0,000 mm 0 W/m -2,2 C -0,3 C 0,0 km/h (0 Bft) 0,00 %
16.11.2011 18:20 -0,3 C 0,0 C 0,0 C 87 % 0 cb 1019,5 hPa 0,0 l/m 0,0 km/h (0 Bft) SW 225 0 min 0,000 mm 0 W/m -2,2 C -0,3 C 0,0 km/h (0 Bft) 0,00 %
16.11.2011 18:25 -0,3 C 0,0 C 0,0 C 87 % 0 cb 1019,5 hPa 0,0 l/m 7,0 km/h (2 Bft) O 100 0 min 0,000 mm 0 W/m -2,2 C -2,8 C 7,0 km/h (2 Bft) 0,00 %
16.11.2011 18:30 -0,3 C 0,0 C 0,0 C 87 % 0 cb 1019,5 hPa 0,0 l/m 2,1 km/h (1 Bft) O-NO 60 0 min 0,000 mm 0 W/m -2,2 C -0,3 C 2,1 km/h (1 Bft) 0,00 %
16.11.2011 18:35 -0,3 C 0,0 C 0,0 C 87 % 0 cb 1019,5 hPa 0,0 l/m 4,2 km/h (1 Bft) NO 50 0 min 0,000 mm 0 W/m -2,2 C -0,3 C 4,2 km/h (1 Bft) 0,00 %
16.11.2011 18:40 -0,3 C 0,0 C 0,0 C 87 % 0 cb 1019,5 hPa 0,0 l/m 1,8 km/h (1 Bft) NO 55 0 min 0,000 mm 0 W/m -2,2 C -0,3 C 1,8 km/h (1 Bft) 0,00 %
16.11.2011 18:45 -0,3 C 0,0 C 0,0 C 87 % 0 cb 1019,5 hPa 0,0 l/m 1,8 km/h (1 Bft) N 5 0 min 0,000 mm 0 W/m -2,2 C -0,3 C 1,8 km/h (1 Bft) 0,00 %
16.11.2011 18:50 -0,3 C 0,0 C 0,0 C 87 % 0 cb 1019,5 hPa 0,0 l/m 3,0 km/h (1 Bft) O 100 0 min 0,000 mm 0 W/m -2,2 C -0,3 C 3,0 km/h (1 Bft) 0,00 %
16.11.2011 18:55 -0,3 C 0,0 C 0,0 C 87 % 0 cb 1019,5 hPa 0,0 l/m 0,0 km/h (0 Bft) SO 130 0 min 0,000 mm 0 W/m -2,2 C -0,3 C 0,0 km/h (0 Bft) 0,00 %
16.11.2011 19:00 -0,3 C 0,0 C 0,0 C 87 % 0 cb 1019,5 hPa 0,0 l/m 2,4 km/h (1 Bft) S-SW 200 0 min 0,000 mm 0 W/m -2,2 C -0,3 C 2,4 km/h (1 Bft) 0,00 %
16.11.2011 19:05 -0,3 C 0,0 C 0,0 C 87 % 0 cb 1019,5 hPa 0,0 l/m 0,0 km/h (0 Bft) SO 125 0 min 0,000 mm 0 W/m -2,2 C -0,3 C 0,0 km/h (0 Bft) 0,00 %
16.11.2011 19:10 -0,3 C 0,0 C 0,0 C 87 % 0 cb 1019,5 hPa 0,0 l/m 0,0 km/h (0 Bft) O-NO 60 0 min 0,000 mm 0 W/m -2,2 C -0,3 C 0,0 km/h (0 Bft) 0,00 %
16.11.2011 19:15 -0,3 C 0,0 C 0,0 C 87 % 0 cb 1019,5 hPa 0,0 l/m 0,0 km/h (0 Bft) SO 125 0 min 0,000 mm 0 W/m -2,2 C -0,3 C 0,0 km/h (0 Bft) 0,00 %
16.11.2011 19:20 -0,3 C 0,0 C 0,0 C 87 % 0 cb 1019,5 hPa 0,0 l/m 2,7 km/h (1 Bft) W 270 0 min 0,000 mm 0 W/m -2,2 C -0,3 C 2,7 km/h (1 Bft) 0,00 %
16.11.2011 19:25 -0,3 C 0,0 C 0,0 C 87 % 0 cb 1019,5 hPa 0,0 l/m 0,0 km/h (0 Bft) O 85 0 min 0,000 mm 0 W/m -2,2 C -0,3 C 0,0 km/h (0 Bft) 0,00 %
16.11.2011 19:30 -0,3 C 0,0 C 0,0 C 87 % 0 cb 1019,5 hPa 0,0 l/m 5,7 km/h (1 Bft) O 95 0 min 0,000 mm 0 W/m -2,2 C -2,2 C 5,7 km/h (1 Bft) 0,00 %
16.11.2011 19:35 -0,3 C 0,0 C 0,0 C 87 % 0 cb 1019,5 hPa 0,0 l/m 0,0 km/h (0 Bft) SO 145 0 min 0,000 mm 0 W/m -2,2 C -0,3 C 0,0 km/h (0 Bft) 0,00 %
16.11.2011 19:40 -0,3 C 0,0 C 0,0 C 87 % 0 cb 1019,5 hPa 0,0 l/m 0,0 km/h (0 Bft) O 95 0 min 0,000 mm 0 W/m -2,2 C -0,3 C 0,0 km/h (0 Bft) 0,00 %
16.11.2011 19:45 -0,2 C 0,0 C 0,0 C 87 % 0 cb 1019,5 hPa 0,0 l/m 2,4 km/h (1 Bft) S-SO 150 0 min 0,000 mm 0 W/m -2,1 C -0,2 C 2,4 km/h (1 Bft) 0,00 %
16.11.2011 19:50 -0,3 C 0,0 C 0,0 C 87 % 0 cb 1019,5 hPa 0,0 l/m 1,2 km/h (1 Bft) S-SO 150 0 min 0,000 mm 0 W/m -2,2 C -0,3 C 1,2 km/h (1 Bft) 0,00 %
16.11.2011 19:55 -0,2 C 0,0 C 0,0 C 87 % 0 cb 1019,5 hPa 0,0 l/m 0,0 km/h (0 Bft) W-NW 290 0 min 0,000 mm 0 W/m -2,1 C -0,2 C 0,0 km/h (0 Bft) 0,00 %
16.11.2011 20:00 -0,3 C 0,0 C 0,0 C 87 % 0 cb 1019,5 hPa 0,0 l/m 5,1 km/h (1 Bft) O-NO 70 0 min 0,000 mm 0 W/m -2,2 C -2,0 C 5,1 km/h (1 Bft) 0,00 %
16.11.2011 20:05 -0,3 C 0,0 C 0,0 C 87 % 0 cb 1019,5 hPa 0,0 l/m 2,4 km/h (1 Bft) W-SW 245 0 min 0,000 mm 0 W/m -2,2 C -0,3 C 2,4 km/h (1 Bft) 0,00 %
16.11.2011 20:10 -0,3 C 0,0 C 0,0 C 87 % 0 cb 1019,5 hPa 0,0 l/m 4,2 km/h (1 Bft) SO 140 0 min 0,000 mm 0 W/m -2,2 C -0,3 C 4,2 km/h (1 Bft) 0,00 %
16.11.2011 20:15 -0,3 C 0,0 C 0,0 C 87 % 0 cb 1019,5 hPa 0,0 l/m 1,8 km/h (1 Bft) SO 140 0 min 0,000 mm 0 W/m -2,2 C -0,3 C 1,8 km/h (1 Bft) 0,00 %
16.11.2011 20:20 -0,3 C 0,0 C 0,0 C 87 % 0 cb 1019,5 hPa 0,0 l/m 0,0 km/h (0 Bft) O-SO 120 0 min 0,000 mm 0 W/m -2,2 C -0,3 C 0,0 km/h (0 Bft) 0,00 %
16.11.2011 20:25 -0,3 C 0,0 C 0,0 C 87 % 0 cb 1019,5 hPa 0,0 l/m 0,0 km/h (0 Bft) SO 145 0 min 0,000 mm 0 W/m -2,2 C -0,3 C 0,0 km/h (0 Bft) 0,00 %
16.11.2011 20:30 -0,3 C 0,0 C 0,0 C 87 % 0 cb 1019,5 hPa 0,0 l/m 0,0 km/h (0 Bft) O-NO 75 0 min 0,000 mm 0 W/m -2,2 C -0,3 C 0,0 km/h (0 Bft) 0,00 %
16.11.2011 20:35 -0,3 C 0,0 C 0,0 C 87 % 0 cb 1019,5 hPa 0,0 l/m 0,0 km/h (0 Bft) O 95 0 min 0,000 mm 0 W/m -2,2 C -0,3 C 0,0 km/h (0 Bft) 0,00 %
16.11.2011 20:40 -0,3 C 0,0 C 0,0 C 87 % 0 cb 1019,5 hPa 0,0 l/m 0,0 km/h (0 Bft) SO 130 0 min 0,000 mm 0 W/m -2,2 C -0,3 C 0,0 km/h (0 Bft) 0,00 %
16.11.2011 20:45 -0,3 C 0,0 C 0,0 C 87 % 0 cb 1019,5 hPa 0,0 l/m 0,0 km/h (0 Bft) SO 140 0 min 0,000 mm 0 W/m -2,2 C -0,3 C 0,0 km/h (0 Bft) 0,00 %
16.11.2011 20:50 -0,2 C 0,0 C 0,0 C 87 % 0 cb 1019,5 hPa 0,0 l/m 0,0 km/h (0 Bft) SO 145 0 min 0,000 mm 0 W/m -2,1 C -0,2 C 0,0 km/h (0 Bft) 0,00 %
16.11.2011 20:55 -0,3 C 0,0 C 0,0 C 87 % 0 cb 1019,5 hPa 0,0 l/m 0,0 km/h (0 Bft) S-SO 155 0 min 0,000 mm 0 W/m -2,2 C -0,3 C 0,0 km/h (0 Bft) 0,00 %
16.11.2011 21:00 -0,2 C 0,0 C 0,0 C 87 % 0 cb 1019,5 hPa 0,0 l/m 0,0 km/h (0 Bft) O-SO 105 0 min 0,000 mm 0 W/m -2,1 C -0,2 C 0,0 km/h (0 Bft) 0,00 %
16.11.2011 21:05 -0,3 C 0,0 C 0,0 C 87 % 0 cb 1019,5 hPa 0,0 l/m 0,0 km/h (0 Bft) S 170 0 min 0,000 mm 0 W/m -2,2 C -0,3 C 0,0 km/h (0 Bft) 0,00 %
16.11.2011 21:10 -0,3 C 0,0 C 0,0 C 87 % 0 cb 1019,5 hPa 0,0 l/m 0,0 km/h (0 Bft) S-SO 165 0 min 0,000 mm 0 W/m -2,2 C -0,3 C 0,0 km/h (0 Bft) 0,00 %
16.11.2011 21:15 -0,3 C 0,0 C 0,0 C 87 % 0 cb 1019,5 hPa 0,0 l/m 6,1 km/h (2 Bft) SO 130 0 min 0,000 mm 0 W/m -2,2 C -2,4 C 6,1 km/h (2 Bft) 0,00 %
16.11.2011 21:20 -0,4 C 0,0 C 0,0 C 87 % 0 cb 1019,5 hPa 0,0 l/m 3,9 km/h (1 Bft) S 180 0 min 0,000 mm 0 W/m -2,3 C -0,4 C 3,9 km/h (1 Bft) 0,00 %
16.11.2011 21:25 -0,4 C 0,0 C 0,0 C 87 % 0 cb 1019,5 hPa 0,0 l/m 2,4 km/h (1 Bft) S 175 0 min 0,000 mm 0 W/m -2,3 C -0,4 C 2,4 km/h (1 Bft) 0,00 %
16.11.2011 21:30 -0,4 C 0,0 C 0,0 C 87 % 0 cb 1019,5 hPa 0,0 l/m 4,5 km/h (1 Bft) S 170 0 min 0,000 mm 0 W/m -2,3 C -0,4 C 4,5 km/h (1 Bft) 0,00 %
16.11.2011 21:35 -0,5 C 0,0 C 0,0 C 87 % 0 cb 1019,5 hPa 0,0 l/m 0,0 km/h (0 Bft) N-NW 340 0 min 0,000 mm 0 W/m -2,4 C -0,5 C 0,0 km/h (0 Bft) 0,00 %
16.11.2011 21:40 -0,5 C 0,0 C 0,0 C 87 % 0 cb 1019,5 hPa 0,0 l/m 0,0 km/h (0 Bft) O-NO 75 0 min 0,000 mm 0 W/m -2,4 C -0,5 C 0,0 km/h (0 Bft) 0,00 %
16.11.2011 21:45 -0,4 C 0,0 C 0,0 C 87 % 0 cb 1019,5 hPa 0,0 l/m 0,0 km/h (0 Bft) SW 215 0 min 0,000 mm 0 W/m -2,3 C -0,4 C 0,0 km/h (0 Bft) 0,00 %
16.11.2011 21:50 -0,4 C 0,0 C 0,0 C 87 % 0 cb 1019,5 hPa 0,0 l/m 5,1 km/h (1 Bft) S-SW 200 0 min 0,000 mm 0 W/m -2,3 C -2,1 C 5,1 km/h (1 Bft) 0,00 %
16.11.2011 21:55 -0,6 C 0,0 C 0,0 C 87 % 0 cb 1019,5 hPa 0,0 l/m 4,5 km/h (1 Bft) SW 215 0 min 0,000 mm 0 W/m -2,5 C -0,6 C 4,5 km/h (1 Bft) 0,00 %
16.11.2011 22:00 -0,6 C 0,0 C 0,0 C 87 % 0 cb 1019,5 hPa 0,0 l/m 0,0 km/h (0 Bft) O-NO 60 0 min 0,000 mm 0 W/m -2,5 C -0,6 C 0,0 km/h (0 Bft) 0,00 %
16.11.2011 22:05 -0,6 C 0,0 C 0,0 C 87 % 0 cb 1019,5 hPa 0,0 l/m 1,8 km/h (1 Bft) NO 40 0 min 0,000 mm 0 W/m -2,5 C -0,6 C 1,8 km/h (1 Bft) 0,00 %
16.11.2011 22:10 -0,5 C 0,0 C 0,0 C 87 % 0 cb 1019,5 hPa 0,0 l/m 0,9 km/h (0 Bft) O-SO 115 0 min 0,000 mm 0 W/m -2,4 C -0,5 C 0,9 km/h (0 Bft) 0,00 %
16.11.2011 22:15 -0,5 C 0,0 C 0,0 C 87 % 0 cb 1019,5 hPa 0,0 l/m 0,3 km/h (0 Bft) O 95 0 min 0,000 mm 0 W/m -2,4 C -0,5 C 0,3 km/h (0 Bft) 0,00 %
16.11.2011 22:20 -0,6 C 0,0 C 0,0 C 87 % 0 cb 1019,5 hPa 0,0 l/m 3,0 km/h (1 Bft) O 80 0 min 0,000 mm 0 W/m -2,5 C -0,6 C 3,0 km/h (1 Bft) 0,00 %
16.11.2011 22:25 -0,6 C 0,0 C 0,0 C 87 % 0 cb 1019,5 hPa 0,0 l/m 0,0 km/h (0 Bft) S 175 0 min 0,000 mm 0 W/m -2,5 C -0,6 C 0,0 km/h (0 Bft) 0,00 %
16.11.2011 22:30 -0,5 C 0,0 C 0,0 C 87 % 0 cb 1019,5 hPa 0,0 l/m 0,0 km/h (0 Bft) SO 145 0 min 0,000 mm 0 W/m -2,4 C -0,5 C 0,0 km/h (0 Bft) 0,00 %
16.11.2011 22:35 -0,5 C 0,0 C 0,0 C 87 % 0 cb 1019,5 hPa 0,0 l/m 0,0 km/h (0 Bft) S-SO 165 0 min 0,000 mm 0 W/m -2,4 C -0,5 C 0,0 km/h (0 Bft) 0,00 %
16.11.2011 22:40 -0,6 C 0,0 C 0,0 C 88 % 0 cb 1019,5 hPa 0,0 l/m 0,0 km/h (0 Bft) S 185 0 min 0,000 mm 0 W/m -2,3 C -0,6 C 0,0 km/h (0 Bft) 0,00 %
16.11.2011 22:45 -0,6 C 0,0 C 0,0 C 88 % 0 cb 1019,5 hPa 0,0 l/m 0,0 km/h (0 Bft) SO 145 0 min 0,000 mm 0 W/m -2,3 C -0,6 C 0,0 km/h (0 Bft) 0,00 %
16.11.2011 22:50 -0,5 C 0,0 C 0,0 C 88 % 0 cb 1019,5 hPa 0,0 l/m 0,0 km/h (0 Bft) SO 140 0 min 0,000 mm 0 W/m -2,2 C -0,5 C 0,0 km/h (0 Bft) 0,00 %
16.11.2011 22:55 -0,5 C 0,0 C 0,0 C 88 % 0 cb 1019,5 hPa 0,0 l/m 0,0 km/h (0 Bft) SO 140 0 min 0,000 mm 0 W/m -2,2 C -0,5 C 0,0 km/h (0 Bft) 0,00 %
16.11.2011 23:00 -0,5 C 0,0 C 0,0 C 88 % 0 cb 1019,5 hPa 0,0 l/m 0,0 km/h (0 Bft) O 85 0 min 0,000 mm 0 W/m -2,2 C -0,5 C 0,0 km/h (0 Bft) 0,00 %
16.11.2011 23:05 -0,5 C 0,0 C 0,0 C 88 % 0 cb 1019,5 hPa 0,0 l/m 0,0 km/h (0 Bft) O-SO 115 0 min 0,000 mm 0 W/m -2,2 C -0,5 C 0,0 km/h (0 Bft) 0,00 %
16.11.2011 23:10 -0,5 C 0,0 C 0,0 C 88 % 0 cb 1019,5 hPa 0,0 l/m 0,0 km/h (0 Bft) S-SO 155 0 min 0,000 mm 0 W/m -2,2 C -0,5 C 0,0 km/h (0 Bft) 0,00 %
16.11.2011 23:15 -0,5 C 0,0 C 0,0 C 88 % 0 cb 1019,5 hPa 0,0 l/m 0,0 km/h (0 Bft) S-SO 165 0 min 0,000 mm 0 W/m -2,2 C -0,5 C 0,0 km/h (0 Bft) 0,00 %
16.11.2011 23:20 -0,5 C 0,0 C 0,0 C 88 % 0 cb 1019,5 hPa 0,0 l/m 0,0 km/h (0 Bft) SO 130 0 min 0,000 mm 0 W/m -2,2 C -0,5 C 0,0 km/h (0 Bft) 0,00 %
16.11.2011 23:25 -0,4 C 0,0 C 0,0 C 88 % 0 cb 1019,5 hPa 0,0 l/m 0,0 km/h (0 Bft) SW 220 0 min 0,000 mm 0 W/m -2,1 C -0,4 C 0,0 km/h (0 Bft) 0,00 %
16.11.2011 23:30 -0,4 C 0,0 C 0,0 C 88 % 0 cb 1019,5 hPa 0,0 l/m 0,0 km/h (0 Bft) O-NO 70 0 min 0,000 mm 0 W/m -2,1 C -0,4 C 0,0 km/h (0 Bft) 0,00 %
16.11.2011 23:35 -0,5 C 0,0 C 0,0 C 88 % 0 cb 1019,5 hPa 0,0 l/m 0,0 km/h (0 Bft) O-NO 65 0 min 0,000 mm 0 W/m -2,2 C -0,5 C 0,0 km/h (0 Bft) 0,00 %
16.11.2011 23:40 -0,5 C 0,0 C 0,0 C 88 % 0 cb 1019,5 hPa 0,0 l/m 0,0 km/h (0 Bft) O 80 0 min 0,000 mm 0 W/m -2,2 C -0,5 C 0,0 km/h (0 Bft) 0,00 %
16.11.2011 23:45 -0,5 C 0,0 C 0,0 C 88 % 0 cb 1019,5 hPa 0,0 l/m 0,0 km/h (0 Bft) S-SO 155 0 min 0,000 mm 0 W/m -2,2 C -0,5 C 0,0 km/h (0 Bft) 0,00 %
16.11.2011 23:50 -0,4 C 0,0 C 0,0 C 88 % 0 cb 1019,5 hPa 0,0 l/m 0,0 km/h (0 Bft) O 90 0 min 0,000 mm 0 W/m -2,1 C -0,4 C 0,0 km/h (0 Bft) 0,00 %
16.11.2011 23:55 -0,5 C 0,0 C 0,0 C 88 % 0 cb 1019,5 hPa 0,0 l/m 0,0 km/h (0 Bft) SO 145 0 min 0,000 mm 0 W/m -2,2 C -0,5 C 0,0 km/h (0 Bft) 0,00 %
_ Min-Zeit 07:15 00:00 00:00 01:30 00:00 00:15 - 01:15 - - - - - 06:40 06:10 01:15 00:00
Minimum _ -2,0 C 0,0 C 0,0 C 84 % 0 cb 1017,5 hPa - 0,0 km/h (0 Bft) - - - - - -3,6 C -6,3 C 0,0 km/h (0 Bft) 0,00 %
_ Max-Zeit 00:45 00:00 00:00 07:10 00:00 09:00 00:00 06:10 - - 00:00 00:00 00:00 14:45 00:50 06:10 00:00
Maximum _ 0,0 C 0,0 C 0,0 C 89 % 0 cb 1019,5 hPa 0,0 l/m 13,9 km/h
W-NW (3 Bft)
- - 0 min 0,000 mm 0 W/m -1,9 C 0,0 C 13,9 km/h
W-NW (3 Bft)
0,00 %
Durchschnitt _ -0,7 C 0,0 C 0,0 C 87 % 0 cb 1018,7 hPa #0,0 l/m 3,5 km/h (1 Bft) O - #0 min. #0,000 mm 0 W/m -2,5 C -1,5 C 3,5 km/h (1 Bft) 0,00 %
Wetterstation Gdesweiler